This demonstration page uses our WeatherBlox Daily Observations layout. Learn more.

Left ArrowRight Arrow

Hourly Observations for January 10, 2015

Temp ( °F °C ) Dew Point ( °F °C ) Humidity (%) Winds ( mph kmh ) Pressure ( in mb ) Visibility ( mi km ) Precip ( " mm )
12:53 am 00:53 Clear 30 -1.1 10 -12.2 43 43 NNW 12 19 30.42 1030 10 16 0.00 0.00
1:53 am 01:53 Clear 28 -2.2 9 -12.8 44 44 N 7 11 30.43 1031 10 16 0.00 0.00
2:53 am 02:53 Clear 26 -3.3 6 -14.4 42 42 NNW 13 20 30.45 1031 10 16 0.00 0.00
3:53 am 03:53 Clear 25 -3.9 5 -15 42 42 NNW 13 20 30.46 1031 10 16 0.00 0.00
4:53 am 04:53 Clear 24 -4.4 3 -16.1 40 40 NNW 7 11 30.47 1032 10 16 0.00 0.00
5:53 am 05:53 Clear 22 -5.6 3 -16.1 44 44 N 7 11 30.48 1032 10 16 0.00 0.00
6:53 am 06:53 Clear 21 -6.1 3 -16.1 45 45 NNW 5 7 30.50 1033 10 16 0.00 0.00
7:53 am 07:53 Sunny 20 -6.7 4 -15.6 50 50 NNW 3 6 30.51 1033 10 16 0.00 0.00
8:53 am 08:53 Sunny 22 -5.6 5 -15 48 48 N 7 11 30.52 1034 10 16 0.00 0.00
9:53 am 09:53 Sunny 26 -3.3 5 -15 40 40 N 5 7 30.55 1035 10 16 0.00 0.00
10:53 am 10:53 Sunny 32 0 7 -13.9 35 35 Calm 30.56 1035 10 16 0.00 0.00
11:53 am 11:53 Sunny 36 2.2 5 -15 27 27 Calm 30.53 1034 10 16 0.00 0.00
12:53 pm 12:53 Sunny 40 4.4 7 -13.9 25 25 VRB 3 6 30.50 1033 10 16 0.00 0.00
1:53 pm 13:53 Sunny 44 6.7 8 -13.3 23 23 N 3 6 30.46 1032 10 16 0.00 0.00
2:53 pm 14:53 Sunny 46 7.8 7 -13.9 20 20 Calm 30.45 1031 10 16 0.00 0.00
3:53 pm 15:53 Sunny 46 7.8 7 -13.9 20 20 SE 3 6 30.45 1031 10 16 0.00 0.00
4:53 pm 16:53 Sunny 47 8.3 8 -13.3 20 20 VRB 3 6 30.47 1032 10 16 0.00 0.00
5:53 pm 17:53 Clear 44 6.7 9 -12.8 24 24 SSE 3 6 30.48 1032 10 16 0.00 0.00
6:53 pm 18:53 Clear 36 2.2 13 -10.6 39 39 Calm 30.50 1033 10 16 0.00 0.00
7:53 pm 19:53 Clear 30 -1.1 15 -9.4 54 54 Calm 30.51 1033 10 16 0.00 0.00
8:53 pm 20:53 Clear 29 -1.7 15 -9.4 56 56 Calm 30.52 1034 10 16 0.00 0.00
9:53 pm 21:53 Clear 28 -2.2 17 -8.3 63 63 Calm 30.54 1034 10 16 0.00 0.00
10:53 pm 22:53 Clear 27 -2.8 17 -8.3 66 66 Calm 30.53 1034 10 16 0.00 0.00
11:53 pm 23:53 Clear 26 -3.3 19 -7.2 75 75 Calm 30.53 1034 10 16 0.00 0.00

Powered by AerisWeather